Location: Slidell
(30.2789°N, 89.7378°W)
Time: 03:18:59
(UTC-06:00)

Cosmos 2360 Rocket - Visible Passes

Search period start: 21 December 2014 00:00
Search period end: 31 December 2014 00:00
Orbit: 835 x 845 km, 71.0° (Epoch: 20 December)

Date Brightness Start Highest point End Pass type
(mag) Time Alt. Az. Time Alt. Az. Time Alt. Az.
21 Dec 2.0 04:47:37 10° SSW 04:53:16 83° WNW 04:58:56 10° NNE visible
22 Dec 2.1 04:38:03 79° NNE 04:38:03 79° NNE 04:43:20 10° NNE visible
23 Dec 3.7 04:25:28 25° NNE 04:25:28 25° NNE 04:27:44 10° NNE visible
23 Dec 4.0 06:07:22 10° NW 06:07:22 10° NW 06:07:39 10° NW visible
24 Dec 4.6 04:11:47 12° NNE 04:11:47 12° NNE 04:12:07 10° NNE visible
